Cedar Ridge, CA

11:53 PM PDT on July 24, 2016 (GMT -0700)
Grass Valley

Weather History for KGOO - May, 2014

Change the Weather History Date:

Sunday, May 11, 2014

  Actual Average (KBLU) Record (KBLU)
Temperature  
Mean Temperature 58 °F -  
Max Temperature 69 °F 59 °F 77 °F (1976)
Min Temperature 46 °F 42 °F 27 °F (1967)
Degree Days  
Heating Degree Days 8    
Growing Degree Days 8 (Base 50)    
Moisture  
Dew Point 26 °F    
Average Humidity 32    
Maximum Humidity 44    
Minimum Humidity 14    
Precipitation  
Precipitation 0.00 in - - ()
Sea Level Pressure  
Sea Level Pressure 30.10 in    
Wind  
Wind Speed 8 mph (NNE)    
Max Wind Speed 13 mph    
Max Gust Speed 25 mph    
Visibility 10 miles    
Events      
Averages and records for this station are not official NWS values.
T = Trace of Precipitation, MM = Missing Value Source: NWS Daily Summary

Daily Weather History Graph

Daily Weather History Graph

Search for Another Location

Airport or City:

Trip Planner

Search our weather history database for the weather conditions in past years. The results will help you decide how hot, cold, wet, or windy it might be!

Date:

Astronomy

May. 11, 2014 Rise Set
Actual Time 5:54 AM PDT 8:06 PM PDT
Civil Twilight 5:24 AM PDT 8:36 PM PDT
Nautical Twilight 4:47 AM PDT 9:13 PM PDT
Astronomical Twilight 4:08 AM PDT 9:53 PM PDT
Moon 5:09 PM PDT (5/11) 4:00 AM PDT (5/11)
Length of Visible Light 15h 12m
Length of Day
14h 12m
Waxing Gibbous, 90% of the Moon is Illuminated
May 11
Waxing Gibbous
May 14
Full
May 21
Last Quarter
May 28
New
Jun 5
First Quarter

Hourly Weather History & Observations

Time (PDT) Temp. Windchill Dew Point Humidity Pressure Visibility Wind Dir Wind Speed Gust Speed Precip Events Conditions
12:15 AM 48.2 °F - 26.6 °F 43% 30.10 in 10.0 mi NE 6.9 mph - N/A   Clear
12:35 AM 48.2 °F - 26.6 °F 43% 30.10 in 10.0 mi NE 5.8 mph - N/A   Clear
12:55 AM 48.2 °F - 26.6 °F 43% 30.10 in 10.0 mi ENE 5.8 mph - N/A   Clear
1:15 AM 48.2 °F - 26.6 °F 43% 30.10 in 10.0 mi NE 5.8 mph - N/A   Clear
1:35 AM 48.2 °F - 26.6 °F 43% 30.10 in 10.0 mi ENE 9.2 mph 16.1 mph N/A   Clear
1:55 AM 48.2 °F - 26.6 °F 43% 30.10 in 10.0 mi NE 11.5 mph 17.3 mph N/A   Clear
2:15 AM 48.2 °F - 24.8 °F 40% 30.10 in 10.0 mi NE 10.4 mph 18.4 mph N/A   Clear
2:35 AM 48.2 °F - 24.8 °F 40% 30.10 in 10.0 mi NE 10.4 mph 18.4 mph N/A   Clear
2:55 AM 48.2 °F - 24.8 °F 40% 30.10 in 10.0 mi NNE 8.1 mph 17.3 mph N/A   Clear
3:15 AM 48.2 °F - 24.8 °F 40% 30.10 in 10.0 mi NNE 9.2 mph 18.4 mph N/A   Clear
3:35 AM 46.4 °F 44.3 °F 24.8 °F 43% 30.10 in 10.0 mi ENE 4.6 mph - N/A   Clear
3:55 AM 46.4 °F 41.9 °F 24.8 °F 43% 30.10 in 10.0 mi ENE 9.2 mph - N/A   Clear
4:15 AM 46.4 °F 42.4 °F 24.8 °F 43% 30.10 in 10.0 mi ENE 8.1 mph - N/A   Clear
4:35 AM 46.4 °F 41.9 °F 24.8 °F 43% 30.09 in 10.0 mi NE 9.2 mph 18.4 mph N/A   Clear
4:55 AM 46.4 °F 42.9 °F 24.8 °F 43% 30.10 in 10.0 mi ENE 6.9 mph - N/A   Clear
5:15 AM 46.4 °F 41.5 °F 24.8 °F 43% 30.09 in 10.0 mi ENE 10.4 mph 20.7 mph N/A   Clear
5:35 AM 46.4 °F 42.9 °F 24.8 °F 43% 30.09 in 10.0 mi ENE 6.9 mph 25.3 mph N/A   Clear
5:55 AM 46.4 °F 43.5 °F 24.8 °F 43% 30.09 in 10.0 mi ENE 5.8 mph 17.3 mph N/A   Clear
6:15 AM 46.4 °F 41.9 °F 24.8 °F 43% 30.09 in 10.0 mi NE 9.2 mph - N/A   Clear
6:35 AM 46.4 °F 44.3 °F 24.8 °F 43% 30.09 in 10.0 mi East 4.6 mph - N/A   Clear
6:55 AM 48.2 °F - 24.8 °F 40% 30.09 in 10.0 mi ENE 10.4 mph - N/A   Clear
7:15 AM 48.2 °F - 24.8 °F 40% 30.09 in 10.0 mi ENE 12.7 mph 20.7 mph N/A   Clear
7:35 AM 48.2 °F - 24.8 °F 40% 30.09 in 10.0 mi ENE 9.2 mph 20.7 mph N/A   Clear
7:55 AM 50.0 °F - 24.8 °F 37% 30.09 in 10.0 mi ENE 11.5 mph 18.4 mph N/A   Clear
8:15 AM 50.0 °F - 24.8 °F 37% 30.09 in 10.0 mi NE 10.4 mph 20.7 mph N/A   Clear
8:35 AM 51.8 °F - 24.8 °F 35% 30.09 in 10.0 mi NE 11.5 mph 16.1 mph N/A   Clear
8:55 AM 53.6 °F - 23.0 °F 30% 30.10 in 10.0 mi NE 10.4 mph 19.6 mph N/A   Clear
9:15 AM 53.6 °F - 24.8 °F 33% 30.11 in 10.0 mi ENE 4.6 mph - N/A   Clear
9:35 AM 55.4 °F - 23.0 °F 29% 30.11 in 10.0 mi NNE 9.2 mph - N/A   Clear
9:55 AM 57.2 °F - 23.0 °F 27% 30.11 in 10.0 mi NE 11.5 mph 16.1 mph N/A   Clear
10:15 AM 57.2 °F - 21.2 °F 25% 30.11 in 10.0 mi ENE 9.2 mph 16.1 mph N/A   Clear
10:35 AM 59.0 °F - 23.0 °F 25% 30.12 in 10.0 mi ENE 6.9 mph - N/A   Clear
10:55 AM 60.8 °F - 21.2 °F 22% 30.12 in 10.0 mi ENE 12.7 mph 17.3 mph N/A   Clear
11:15 AM 60.8 °F - 19.4 °F 20% 30.12 in 9.0 mi NE 12.7 mph 19.6 mph N/A   Clear
11:35 AM 62.6 °F - 19.4 °F 19% 30.12 in 10.0 mi NNE 8.1 mph - N/A   Clear
11:55 AM 62.6 °F - 19.4 °F 19% 30.12 in 10.0 mi ENE 10.4 mph - N/A   Clear
12:15 PM 64.4 °F - 23.0 °F 21% 30.11 in 10.0 mi ENE 6.9 mph - N/A   Clear
12:35 PM 64.4 °F - 19.4 °F 18% 30.11 in 10.0 mi North 8.1 mph - N/A   Clear
12:55 PM 64.4 °F - 23.0 °F 21% 30.10 in 10.0 mi ENE 4.6 mph - N/A   Clear
1:15 PM 66.2 °F - 23.0 °F 19% 30.09 in 10.0 mi NE 5.8 mph - N/A   Clear
1:35 PM 66.2 °F - 23.0 °F 19% 30.09 in 10.0 mi North 9.2 mph 16.1 mph N/A   Clear
1:55 PM 66.2 °F - 21.2 °F 18% 30.09 in 10.0 mi North 5.8 mph - N/A   Clear
2:15 PM 68.0 °F - 23.0 °F 18% 30.09 in 10.0 mi NE 6.9 mph - N/A   Clear
2:35 PM 68.0 °F - 23.0 °F 18% 30.08 in 10.0 mi ENE 5.8 mph - N/A   Clear
2:55 PM 68.0 °F - 19.4 °F 16% 30.08 in 10.0 mi ENE 12.7 mph 18.4 mph N/A   Clear
3:15 PM 69.8 °F - 17.6 °F 14% 30.08 in 10.0 mi NNE 6.9 mph - N/A   Clear
3:35 PM 69.8 °F - 21.2 °F 16% 30.07 in 10.0 mi ENE 9.2 mph 16.1 mph N/A   Clear
3:55 PM 69.8 °F - 17.6 °F 14% 30.07 in 10.0 mi North 9.2 mph 16.1 mph N/A   Clear
4:15 PM 68.0 °F - 32.0 °F 26% 30.06 in 10.0 mi NW 9.2 mph 16.1 mph N/A   Clear
4:35 PM 68.0 °F - 30.2 °F 24% 30.06 in 10.0 mi NW 12.7 mph - N/A   Clear
4:55 PM 68.0 °F - 32.0 °F 26% 30.07 in 10.0 mi WNW 10.4 mph - N/A   Clear
5:15 PM 68.0 °F - 32.0 °F 26% 30.07 in 10.0 mi WNW 10.4 mph 19.6 mph N/A   Clear
5:35 PM 66.2 °F - 32.0 °F 28% 30.07 in 10.0 mi NW 12.7 mph 18.4 mph N/A   Clear
5:55 PM 66.2 °F - 32.0 °F 28% 30.07 in 10.0 mi NW 10.4 mph 17.3 mph N/A   Clear
6:15 PM 66.2 °F - 32.0 °F 28% 30.07 in 10.0 mi NW 10.4 mph - N/A   Clear
6:35 PM 66.2 °F - 32.0 °F 28% 30.06 in 10.0 mi NW 8.1 mph - N/A   Clear
6:55 PM 66.2 °F - 32.0 °F 28% 30.07 in 10.0 mi NW 11.5 mph - N/A   Clear
7:15 PM 66.2 °F - 32.0 °F 28% 30.07 in 10.0 mi NNW 8.1 mph - N/A   Clear
7:35 PM 64.4 °F - 32.0 °F 30% 30.08 in 10.0 mi NNW 9.2 mph - N/A   Clear
7:55 PM 64.4 °F - 32.0 °F 30% 30.08 in 10.0 mi NNW 8.1 mph - N/A   Clear
8:15 PM 62.6 °F - 32.0 °F 32% 30.09 in 10.0 mi NNW 8.1 mph - N/A   Clear
8:35 PM 62.6 °F - 32.0 °F 32% 30.09 in 10.0 mi North 5.8 mph - N/A   Clear
8:55 PM 60.8 °F - 32.0 °F 34% 30.10 in 10.0 mi North 5.8 mph - N/A   Clear
9:15 PM 62.6 °F - 32.0 °F 32% 30.11 in 10.0 mi North 3.5 mph - N/A   Clear
9:35 PM 60.8 °F - 32.0 °F 34% 30.12 in 10.0 mi NNE 3.5 mph - N/A   Clear
9:55 PM 59.0 °F - 32.0 °F 36% 30.13 in 10.0 mi NNE 3.5 mph - N/A   Clear
10:15 PM 59.0 °F - 33.8 °F 39% 30.13 in 10.0 mi Calm Calm - N/A   Clear
10:35 PM 59.0 °F - 32.0 °F 36% 30.13 in 10.0 mi NE 4.6 mph - N/A   Clear
10:55 PM 57.2 °F - 35.6 °F 44% 30.14 in 10.0 mi NNE 4.6 mph - N/A   Clear
11:15 PM 57.2 °F - 33.8 °F 41% 30.14 in 10.0 mi NNE 3.5 mph - N/A   Clear
11:35 PM 57.2 °F - 23.0 °F 27% 30.14 in 10.0 mi Calm Calm - N/A   Clear
11:55 PM 60.8 °F - 10.4 °F 14% 30.14 in 10.0 mi East 6.9 mph - N/A   Clear